Torna al catalogo

STARLINK-32821

AttivoComunicazioniVLEO
NORAD 63078·PAYLOAD·🇺🇸 United States

Lanciato Feb 23, 2025 da Vandenberg Space Force Base

Loading…

Prossimi Passaggi (prossime 24 ore)

TLE

AggiornatoSource: CelesTrak SupGP

Epoca: Sep 14, 2026, 22:29 UTC

1 63078C 25037B   26257.93729167  .00018165  00000+0  63182-3 0  2577
2 63078  70.0006 235.8147 0003185 267.5063 200.9791 15.29573486    14

Traccia STARLINK-32821 in tempo reale con AllMySat

Download on the App Store